Weather History for New Bedford, MA

Change the Weather History Date:

Sunday, April 1, 2012

  Actual Average Record
Temperature  
Mean Temperature 38 °F -  
Max Temperature 53 °F 50 °F 71 °F (1999)
Min Temperature 25 °F 35 °F 24 °F (1964)
Degree Days  
Heating Degree Days 26    
Moisture  
Dew Point 30 °F    
Average Humidity 80    
Maximum Humidity 96    
Minimum Humidity 35    
Precipitation  
Precipitation 0.10 in - - ()
Sea Level Pressure  
Sea Level Pressure 29.79 in    
Wind  
Wind Speed 3 mph (SSW)    
Max Wind Speed 15 mph    
Max Gust Speed 21 mph    
Visibility 7 miles    
Events Fog , Rain    
Averages and records for this station are not official NWS values.
T = Trace of Precipitation, MM = Missing Value Source: NWS Daily Summary

Daily Weather History Graph

Daily Weather History Graph

Search for Another Location

Airport:

Trip Planner

Search our weather history database for the weather conditions in past years. The results will help you decide how hot, cold, wet, or windy it might be!

Date:

Astronomy

Apr. 01, 2012 Rise Set
Actual Time 6:25 AM EDT 7:09 PM EDT
Civil Twilight 5:57 AM EDT 7:37 PM EDT
Nautical Twilight 5:24 AM EDT 8:11 PM EDT
Astronomical Twilight 4:50 AM EDT 8:45 PM EDT
Moon 1:32 PM EDT (4/1) 3:05 AM EDT (4/1)
Length of Visible Light 13h 39m
Length of Day
12h 43m
Waxing Gibbous, 69% of the Moon is Illuminated
Apr 1
Waxing Gibbous
Apr 6
Full
Apr 13
Last Quarter
Apr 21
New
Apr 29
First Quarter

Hourly Weather History & Observations

Time (EDT) Temp. Windchill Dew Point Humidity Pressure Visibility Wind Dir Wind Speed Gust Speed Precip Events Conditions
12:04 AM 28.4 °F - 26.6 °F 93% 29.88 in 0.5 mi Calm Calm - N/A Fog Light Freezing Fog
12:48 AM 28.4 °F - 26.6 °F 93% 29.88 in 0.2 mi Calm Calm - N/A Fog Light Freezing Fog
12:53 AM 28.0 °F - 26.1 °F 92% 29.88 in 0.5 mi Calm Calm - N/A Fog Light Freezing Fog
12:59 AM 28.4 °F - 26.6 °F 93% 29.88 in 0.2 mi Calm Calm - N/A Fog Light Freezing Fog
1:10 AM 28.4 °F - 26.6 °F 93% 29.88 in 0.8 mi Calm Calm - N/A   Mist
1:18 AM 28.4 °F - 26.6 °F 93% 29.87 in 0.5 mi Calm Calm - N/A Fog Light Freezing Fog
1:26 AM 28.4 °F - 26.6 °F 93% 29.87 in 1.5 mi Calm Calm - N/A   Partly Cloudy
1:29 AM 28.4 °F - 26.6 °F 93% 29.87 in 3.0 mi Calm Calm - N/A   Partly Cloudy
1:53 AM 27.0 °F - 26.1 °F 96% 29.88 in 8.0 mi Calm Calm - N/A   Clear
2:16 AM 28.4 °F - 26.6 °F 93% 29.87 in 2.5 mi Calm Calm - N/A   Clear
2:38 AM 26.6 °F - 24.8 °F 93% 29.86 in 5.0 mi Calm Calm - N/A   Clear
2:53 AM 27.0 °F - 25.0 °F 92% 29.87 in 3.0 mi Calm Calm - N/A   Clear
3:53 AM 27.0 °F - 25.0 °F 92% 29.86 in 6.0 mi Calm Calm - N/A   Clear
4:53 AM 25.0 °F - 23.0 °F 92% 29.86 in 7.0 mi Calm Calm - N/A   Clear
5:53 AM 26.1 °F - 23.0 °F 88% 29.87 in 9.0 mi Calm Calm - N/A   Clear
6:53 AM 26.1 °F - 24.1 °F 92% 29.87 in 10.0 mi Calm Calm - N/A   Clear
7:53 AM 30.9 °F - 30.0 °F 96% 29.88 in 10.0 mi Calm Calm - N/A   Clear
8:53 AM 42.1 °F - 36.0 °F 79% 29.86 in 10.0 mi Calm Calm - N/A   Clear
9:53 AM 46.0 °F 44.8 °F 27.0 °F 47% 29.86 in 10.0 mi West 3.5 mph - N/A   Clear
10:53 AM 48.0 °F - 28.0 °F 46% 29.83 in 10.0 mi Calm Calm - N/A   Clear
11:53 AM 50.0 °F - 26.1 °F 39% 29.81 in 10.0 mi SSE 8.1 mph - N/A   Clear
12:53 PM 50.0 °F - 25.0 °F 38% 29.78 in 10.0 mi SE 13.8 mph 20.7 mph N/A   Clear
1:53 PM 52.0 °F - 25.0 °F 35% 29.76 in 10.0 mi South 11.5 mph - N/A   Clear
2:53 PM 51.1 °F - 25.0 °F 36% 29.74 in 10.0 mi SSW 12.7 mph - N/A   Clear
3:53 PM 48.0 °F - 27.0 °F 44% 29.73 in 10.0 mi SW 13.8 mph - N/A   Overcast
4:53 PM 46.0 °F 39.6 °F 28.9 °F 51% 29.71 in 10.0 mi SSW 15.0 mph 19.6 mph N/A   Overcast
5:53 PM 45.0 °F 40.1 °F 30.0 °F 56% 29.71 in 10.0 mi SSW 9.2 mph - N/A   Overcast
6:53 PM 41.0 °F 38.0 °F 35.1 °F 79% 29.70 in 9.0 mi SW 4.6 mph - 0.01 in Rain Light Rain
7:51 PM 41.0 °F 37.1 °F 37.4 °F 87% 29.70 in 6.0 mi SSW 5.8 mph - 0.03 in Rain Light Rain
7:53 PM 41.0 °F 37.1 °F 37.0 °F 86% 29.71 in 7.0 mi South 5.8 mph - 0.03 in Rain Light Rain
8:53 PM 39.9 °F 34.5 °F 37.0 °F 89% 29.70 in 10.0 mi SSW 8.1 mph - 0.02 in Rain Light Rain
9:53 PM 39.9 °F 33.4 °F 37.0 °F 89% 29.69 in 7.0 mi SSW 10.4 mph - 0.03 in Rain Light Rain
10:27 PM 39.2 °F 34.2 °F 37.4 °F 93% 29.68 in 9.0 mi SSW 6.9 mph - 0.00 in   Overcast
10:53 PM 39.0 °F 34.0 °F 37.0 °F 93% 29.67 in 6.0 mi South 6.9 mph - 0.00 in Rain Light Rain
11:11 PM 39.2 °F 35.0 °F 37.4 °F 93% 29.66 in 7.0 mi South 5.8 mph - 0.00 in   Overcast
11:19 PM 39.2 °F 34.2 °F 37.4 °F 93% 29.65 in 6.0 mi South 6.9 mph - 0.00 in Rain Light Rain
11:34 PM 39.2 °F 34.2 °F 37.4 °F 93% 29.64 in 6.0 mi South 6.9 mph - 0.00 in Rain Light Rain
11:53 PM 39.0 °F 34.8 °F 37.0 °F 93% 29.64 in 9.0 mi South 5.8 mph - 0.01 in Rain Light Rain